Location: The Jewett Observatory
(46.7288°N, 117.1525°W)
Time: 07:00:00
(UTC-08:00)

Amateur Radio Satellites - All Passes

Search period start: 23 November 2017 06:30
Search period end: 24 November 2017 06:30
Location: The Jewett Observatory, 46.7288°N, 117.1525°W

Satellite Date Start Highest point End Downlink Frequencies (MHz)
Time Altitude Azimuth
CUTE-I 23 Nov 06:30:11 06:35:36 85° 286° (WNW) 06:40:57 437.470
XW-2C 23 Nov 06:30:55 06:34:35 45° 288° (WNW) 06:38:14 145.795 - 145.815
LilacSat-2 23 Nov 06:35:55 06:39:29 37° 289° (WNW) 06:43:03 437.200
PCSat 23 Nov 06:37:59 06:42:02 21° 36° (NE) 06:46:04 145.827
XW-2F 23 Nov 06:39:30 06:43:03 39° 289° (WNW) 06:46:36 145.980 - 146.000
AO-7 23 Nov 06:41:30 06:45:38 15° 323° (NW) 06:49:46 .
XW-2A 23 Nov 06:56:23 06:58:56 20° 94° (E) 07:01:29 145.665 - 145.685
AO-73 23 Nov 07:02:10 07:04:23 14° 90° (E) 07:06:37 145.935
KAITUO 1B 23 Nov 07:03:33 07:06:46 27° 292° (WNW) 07:09:59 145.475/437.950
CUBEBUG 2 23 Nov 07:10:40 07:14:49 62° 101° (E) 07:18:54 437.445
STRAND 1 23 Nov 07:12:21 07:17:00 34° 264° (W) 07:21:40 437.568
Oscar 11 23 Nov 07:15:55 07:18:15 14° 89° (E) 07:20:34 .
UNISAT 6 23 Nov 07:19:58 07:22:29 15° 60° (ENE) 07:24:58 437.425
TIGRISAT 23 Nov 07:23:40 07:26:10 15° 60° (ENE) 07:28:38 435.000
XW-2D 23 Nov 07:25:48 07:27:36 13° 298° (WNW) 07:29:23 145.860 - 145.880
CUTE 1.7 + AOD 2 23 Nov 07:26:10 07:30:21 53° 288° (WNW) 07:34:31 437.475
YUBILEINY 23 Nov 07:37:35 07:43:37 20° 304° (NW) 07:49:43 435.215
NUDT-PHONESAT 23 Nov 07:45:47 07:46:54 11° 299° (WNW) 07:48:01 437.300
ZACube-1 23 Nov 07:47:23 07:51:24 46° 99° (E) 07:55:26 437.345
AAUSAT CUBESAT 2 23 Nov 07:51:21 07:55:34 82° 103° (ESE) 07:59:45 437.432
SEEDS 23 Nov 07:52:04 07:56:08 45° 289° (WNW) 08:00:11 437.485
FO-29 23 Nov 08:01:00 08:07:43 61° 260° (W) 08:15:16 435.910
UWE-3 23 Nov 08:02:32 08:06:39 64° 286° (WNW) 08:10:45 435.000/436.395/437.385
HO-68 23 Nov 08:04:02 08:10:57 51° 295° (WNW) 08:17:48 435.675
CUTE-I 23 Nov 08:11:54 08:14:51 15° 305° (NW) 08:17:46 437.470
PCSat 23 Nov 08:20:46 08:26:14 86° 59° (ENE) 08:31:39 145.827
XW-2A 23 Nov 08:28:46 08:31:39 26° 291° (WNW) 08:34:31 145.665 - 145.685
Max Valier Satellite 23 Nov 08:36:45 08:38:33 13° 90° (E) 08:40:22 145.860
AO-73 23 Nov 08:36:55 08:40:59 58° 287° (WNW) 08:45:05 145.935
CUBEBUG 2 23 Nov 08:48:39 08:50:57 15° 299° (WNW) 08:53:14 437.445
Oscar 11 23 Nov 08:50:30 08:54:48 63° 287° (WNW) 08:59:05 .
UNISAT 6 23 Nov 08:54:08 08:58:40 72° 257° (WSW) 09:03:08 437.425
TIGRISAT 23 Nov 08:57:47 09:02:19 73° 257° (WSW) 09:06:47 435.000
BEESAT 2 23 Nov 09:02:56 09:04:19 11° 26° (NNE) 09:05:42 435.950
PRISM 23 Nov 09:08:33 09:12:37 60° 72° (ENE) 09:16:44 437.425
BEESAT 3 23 Nov 09:21:49 09:25:20 29° 42° (NE) 09:28:47 437.485
ZACube-1 23 Nov 09:24:30 09:27:23 18° 297° (WNW) 09:30:16 437.345
AAUSAT CUBESAT 2 23 Nov 09:28:47 09:30:23 12° 301° (WNW) 09:31:59 437.432
DELFI C3 23 Nov 09:34:12 09:38:14 88° 103° (ESE) 09:42:13 145.870
DUCHIFAT 1 23 Nov 09:39:22 09:41:25 13° 60° (ENE) 09:43:27 145.980
AO-85 23 Nov 09:41:58 09:44:25 14° 28° (NNE) 09:46:57 145.980
EO-79 23 Nov 09:48:34 09:51:43 21° 64° (ENE) 09:54:51 145.935-145.965
NANOSAT C BR1 23 Nov 09:50:17 09:53:16 19° 63° (ENE) 09:56:16 145.865
FO-29 23 Nov 09:52:22 09:54:29 11° 282° (WNW) 09:56:40 435.910
AIST 2D 23 Nov 09:53:04 09:56:25 52° 74° (ENE) 09:59:50 435.315
HO-68 23 Nov 09:54:09 09:57:04 13° 317° (NW) 09:59:59 435.675
EO-88 23 Nov 10:01:28 10:05:09 88° 286° (WNW) 10:08:49 145.990 - 145.960
POLYITAN 1 23 Nov 10:04:01 10:07:38 28° 67° (ENE) 10:11:15 437.675
PCSat 23 Nov 10:05:45 10:08:53 16° 256° (WSW) 10:12:01 145.827
Max Valier Satellite 23 Nov 10:09:05 10:12:39 49° 288° (WNW) 10:16:12 145.860
FALCONSAT 3 23 Nov 10:11:16 10:13:18 14° 177° (S) 10:15:20 435.103
LO-87 23 Nov 10:18:34 10:21:07 18° 93° (E) 10:23:38 145.935 - 145.965
BUGSAT 1 23 Nov 10:23:47 10:24:09 10° 58° (ENE) 10:24:32 437.445
ESTCUBE 1 23 Nov 10:25:43 10:29:03 20° 92° (E) 10:32:24 437.505/2401.250
QB50P2 23 Nov 10:26:55 10:31:04 53° 72° (ENE) 10:35:11 145.880/145.840
BEESAT 2 23 Nov 10:39:06 10:43:02 47° 48° (NE) 10:46:54 435.950
PRISM 23 Nov 10:46:07 10:48:17 14° 270° (W) 10:50:27 437.425
Oscar 19 23 Nov 10:49:05 10:51:52 15° 56° (NE) 10:54:38 437.125/150
BEESAT 3 23 Nov 10:59:17 11:02:55 35° 242° (WSW) 11:06:28 437.485
DELFI C3 23 Nov 11:11:36 11:12:18 10° 301° (WNW) 11:13:00 145.870
DUCHIFAT 1 23 Nov 11:12:19 11:16:31 73° 257° (WSW) 11:20:44 145.980
SPROUT 23 Nov 11:13:26 11:15:54 15° 90° (E) 11:18:20 437.525
AO-91 23 Nov 11:21:09 11:25:30 26° 64° (ENE) 11:29:49 145.960
AO-85 23 Nov 11:21:14 11:25:46 54° 49° (NE) 11:30:38 145.980
EO-79 23 Nov 11:23:08 11:27:11 43° 261° (W) 11:31:15 145.935-145.965
NANOSAT C BR1 23 Nov 11:24:34 11:28:39 47° 261° (W) 11:32:45 145.865
AIST 2D 23 Nov 11:28:54 11:29:55 11° 271° (W) 11:30:57 435.315
Gurwin Techsat 1B 23 Nov 11:32:50 11:37:08 26° 62° (ENE) 11:41:27 435.225
POLYITAN 1 23 Nov 11:39:36 11:43:21 30° 264° (W) 11:47:06 437.675
FALCONSAT 3 23 Nov 11:50:17 11:51:33 11° 193° (SSW) 11:52:49 435.103
LO-87 23 Nov 11:51:25 11:54:35 31° 290° (WNW) 11:57:44 145.935 - 145.965
BUGSAT 1 23 Nov 11:54:36 11:58:48 83° 75° (ENE) 12:02:58 437.445
ESTCUBE 1 23 Nov 12:01:45 12:06:07 48° 289° (WNW) 12:10:28 437.505/2401.250
O/OREOS (USA 219) 23 Nov 12:03:03 12:06:57 28° 104° (ESE) 12:10:51 437.305
QB50P2 23 Nov 12:04:30 12:07:09 16° 269° (W) 12:09:49 145.880/145.840
AO-7 23 Nov 12:06:45 12:12:36 22° 45° (NE) 12:18:27 .
VELOX 1 23 Nov 12:10:43 12:14:53 37° 97° (E) 12:18:59 145.980
BEESAT 2 23 Nov 12:17:26 12:20:27 20° 246° (WSW) 12:23:25 435.950
Oscar 19 23 Nov 12:25:19 12:30:26 89° 73° (ENE) 12:35:37 437.125/150
SPROUT 23 Nov 12:47:58 12:52:09 57° 288° (WNW) 12:56:18 437.525
ITAMSAT 1 23 Nov 12:48:00 12:50:06 12° 53° (NE) 12:52:13 435.822/435.867
DX 1 23 Nov 12:48:22 12:51:47 22° 93° (E) 12:55:11 434.975-435.025
M-CUBED/EXP-1 PRIME 23 Nov 12:48:42 12:52:07 36° 63° (ENE) 12:55:49 437.505
50 SAT 23 Nov 12:53:15 12:55:49 22° 95° (E) 12:58:24 437.505
AO-91 23 Nov 12:56:19 13:01:35 55° 261° (W) 13:06:51 145.960
AO-85 23 Nov 13:02:07 13:05:58 25° 245° (WSW) 13:09:59 145.980
Gurwin Techsat 1B 23 Nov 13:11:35 13:16:46 52° 260° (W) 13:21:59 435.225
UKube-1 23 Nov 13:24:29 13:28:23 32° 97° (E) 13:32:14 .
O/OREOS (USA 219) 23 Nov 13:41:56 13:46:13 37° 303° (WNW) 13:50:32 437.305
MOZHAYETS 4 23 Nov 13:44:32 13:45:54 11° 87° (E) 13:47:15
VELOX 1 23 Nov 13:47:27 13:51:09 26° 295° (WNW) 13:54:49 145.980
YUBILEINY 23 Nov 13:47:57 13:52:50 16° 51° (NE) 13:57:42 435.215
AO-7 23 Nov 13:55:51 14:04:06 76° 67° (ENE) 14:12:25 .
ITUPSAT 1 23 Nov 13:57:22 13:58:46 11° 87° (E) 14:00:10 437.325
Oscar 19 23 Nov 14:08:16 14:10:28 13° 273° (W) 14:12:42 437.125/150
NO-84 23 Nov 14:10:38 14:14:07 46° 137° (SE) 14:17:55 435.350 FM
ITAMSAT 1 23 Nov 14:23:27 14:28:39 72° 72° (ENE) 14:33:53 435.822/435.867
M-CUBED/EXP-1 PRIME 23 Nov 14:23:56 14:26:41 20° 263° (W) 14:29:37 437.505
DX 1 23 Nov 14:24:00 14:28:08 41° 291° (WNW) 14:32:13 434.975-435.025
50 SAT 23 Nov 14:25:17 14:27:50 22° 292° (WNW) 14:30:21 437.505
UKube-1 23 Nov 15:00:36 15:04:19 28° 294° (WNW) 15:08:00 .
MOZHAYETS 4 23 Nov 15:19:05 15:23:40 86° 287° (WNW) 15:28:16
BEESAT 23 Nov 15:20:54 15:25:40 72° 103° (ESE) 15:30:25 436.000
ITUPSAT 1 23 Nov 15:32:29 15:37:17 90° 98° (E) 15:42:02 437.325
DOVE 4 23 Nov 15:33:06 15:38:07 56° 72° (ENE) 15:43:18 437.250
CUBESAT XI-V 23 Nov 15:37:55 15:42:19 38° 97° (E) 15:46:41 437.345
XW-2C 23 Nov 15:42:48 15:44:18 12° 61° (ENE) 15:45:48 145.795 - 145.815
YUBILEINY 23 Nov 15:43:01 15:51:50 63° 76° (ENE) 16:00:33 435.215
LilacSat-2 23 Nov 15:47:35 15:49:43 15° 63° (ENE) 15:51:51 437.200
NO-84 23 Nov 15:47:54 15:51:32 40° 338° (NNW) 15:55:25 435.350 FM
XW-2F 23 Nov 15:50:27 15:52:19 14° 62° (ENE) 15:54:12 145.980 - 146.000
AO-7 23 Nov 15:50:55 15:57:38 27° 267° (W) 16:04:25 .
RS-15 23 Nov 16:00:05 16:07:21 18° 95° (E) 16:14:34 29.354- 29.394
ITAMSAT 1 23 Nov 16:05:18 16:08:39 17° 270° (W) 16:12:00 435.822/435.867
KAITUO 1B 23 Nov 16:12:38 16:15:12 18° 65° (ENE) 16:17:47 145.475/437.950
CUTE-I 23 Nov 16:15:46 16:20:29 32° 64° (ENE) 16:25:13 437.470
XW-2D 23 Nov 16:33:43 16:37:15 42° 72° (ENE) 16:40:50 145.860 - 145.880
CUTE 1.7 + AOD 2 23 Nov 16:47:01 16:49:48 17° 62° (ENE) 16:52:34 437.475
HO-68 23 Nov 16:48:09 16:54:36 38° 60° (ENE) 17:01:05 435.675
XW-2B 23 Nov 16:48:29 16:52:10 61° 74° (ENE) 16:55:53 145.730 - 145.750
KKS-1 23 Nov 16:50:50 16:55:09 46° 99° (E) 16:59:25 437.445
NUDT-PHONESAT 23 Nov 16:51:12 16:54:41 44° 72° (ENE) 16:58:11 437.300
MOZHAYETS 4 23 Nov 16:58:22 17:00:06 12° 303° (WNW) 17:01:49
BEESAT 23 Nov 16:59:57 17:02:53 17° 301° (WNW) 17:05:49 436.000
STARS 23 Nov 17:07:16 17:11:05 28° 96° (E) 17:14:51 437.465
SEEDS 23 Nov 17:11:40 17:14:38 19° 63° (ENE) 17:17:37 437.485
ITUPSAT 1 23 Nov 17:12:05 17:14:24 14° 304° (WNW) 17:16:43 437.325
DOVE 4 23 Nov 17:12:12 17:16:08 22° 270° (W) 17:20:11 437.250
XW-2C 23 Nov 17:14:16 17:17:59 64° 260° (W) 17:21:43 145.795 - 145.815
CUBESAT XI-V 23 Nov 17:15:35 17:19:32 27° 295° (WNW) 17:23:29 437.345
LilacSat-2 23 Nov 17:19:56 17:23:35 50° 260° (W) 17:27:17 437.200
XW-2F 23 Nov 17:22:20 17:25:59 55° 260° (W) 17:29:40 145.980 - 146.000
NO-84 23 Nov 17:26:18 17:29:40 25° 359° (N) 17:33:11 435.350 FM
UWE-3 23 Nov 17:27:14 17:30:00 17° 62° (ENE) 17:32:44 435.000/436.395/437.385
XW-2A 23 Nov 17:31:27 17:32:38 12° 63° (ENE) 17:33:49 145.665 - 145.685
YUBILEINY 23 Nov 17:40:32 17:48:05 33° 278° (W) 17:55:37 435.215
KAITUO 1B 23 Nov 17:45:30 17:48:55 37° 263° (W) 17:52:24 145.475/437.950
CUTE-I 23 Nov 17:55:23 18:00:24 40° 262° (W) 18:05:29 437.470
AO-73 23 Nov 18:00:18 18:03:01 17° 63° (ENE) 18:05:44 145.935
RS-15 23 Nov 18:05:18 18:17:27 69° 118° (ESE) 18:29:30 29.354- 29.394
XW-2D 23 Nov 18:09:20 18:11:39 16° 269° (W) 18:13:57 145.860 - 145.880
CUBEBUG 2 23 Nov 18:10:47 18:15:18 73° 75° (ENE) 18:19:43 437.445
Oscar 11 23 Nov 18:13:29 18:16:10 16° 62° (ENE) 18:18:52 .
CUTE 1.7 + AOD 2 23 Nov 18:21:08 18:25:14 53° 261° (W) 18:29:23 437.475
XW-2B 23 Nov 18:25:36 18:26:45 11° 271° (W) 18:27:53 145.730 - 145.750
NUDT-PHONESAT 23 Nov 18:26:47 18:28:46 14° 269° (W) 18:30:47 437.300
KKS-1 23 Nov 18:28:01 18:31:25 22° 297° (WNW) 18:34:48 437.445
HO-68 23 Nov 18:35:10 18:42:08 52° 260° (W) 18:49:10 435.675
STARS 23 Nov 18:43:30 18:47:25 32° 293° (WNW) 18:51:18 437.465
AAUSAT CUBESAT 2 23 Nov 18:43:34 18:47:42 75° 74° (ENE) 18:51:52 437.432
ZACube-1 23 Nov 18:45:31 18:49:40 52° 72° (ENE) 18:53:46 437.345
SEEDS 23 Nov 18:45:59 18:50:00 46° 261° (W) 18:54:04 437.485
nSIGHT-1 23 Nov 18:49:19 18:51:02 14° 135° (SE) 18:52:45 .
XW-2A 23 Nov 19:01:41 19:04:55 50° 260° (W) 19:08:10 145.665 - 145.685
UWE-3 23 Nov 19:01:42 19:06:03 58° 259° (W) 19:10:18 435.000/436.395/437.385
NO-84 23 Nov 19:03:59 19:07:51 37° 20° (NNE) 19:11:50 435.350 FM
FO-29 23 Nov 19:08:13 19:14:16 24° 87° (E) 19:20:00 435.910
STRAND 1 23 Nov 19:19:09 19:24:16 67° 102° (ESE) 19:29:20 437.568
AO-73 23 Nov 19:34:42 19:38:53 54° 260° (W) 19:43:01 145.935
ISS 23 Nov 19:41:26 19:44:21 31° 142° (SE) 19:47:18 437.550
Oscar 11 23 Nov 19:47:38 19:51:52 59° 260° (W) 19:56:08 .
CUBEBUG 2 23 Nov 19:50:20 19:52:22 13° 271° (W) 19:54:25 437.445
RS-15 23 Nov 20:18:45 20:30:41 51° 324° (NW) 20:42:25 29.354- 29.394
DELFI C3 23 Nov 20:21:31 20:25:28 71° 74° (ENE) 20:29:29 145.870
SO-50 23 Nov 20:22:32 20:26:25 30° 116° (ESE) 20:30:20 436.795
AAUSAT CUBESAT 2 23 Nov 20:22:33 20:23:40 11° 273° (W) 20:24:48 437.432
ZACube-1 23 Nov 20:23:31 20:26:14 16° 269° (W) 20:28:56 437.345
nSIGHT-1 23 Nov 20:23:36 20:26:49 80° 153° (SSE) 20:30:02 .
O/OREOS (USA 219) 23 Nov 20:31:29 20:33:55 14° 44° (NE) 20:36:21 437.305
EO-88 23 Nov 20:41:15 20:44:47 57° 74° (ENE) 20:48:23 145.990 - 145.960
NO-84 23 Nov 20:41:15 20:45:27 65° 219° (SW) 20:49:41 435.350 FM
UNISAT 6 23 Nov 20:43:41 20:46:40 18° 91° (E) 20:49:38 437.425
TIGRISAT 23 Nov 20:47:13 20:50:10 18° 91° (E) 20:53:06 435.000
Max Valier Satellite 23 Nov 20:49:55 20:53:34 77° 259° (W) 20:57:14 145.860
FO-29 23 Nov 20:52:13 21:00:08 82° 287° (WNW) 21:07:31 435.910
LO-87 23 Nov 20:57:57 20:59:43 13° 63° (ENE) 21:01:28 145.935 - 145.965
STRAND 1 23 Nov 20:59:22 21:02:57 20° 301° (WNW) 21:06:31 437.568
ISS 23 Nov 21:17:29 21:20:43 55° 340° (NNW) 21:23:57 437.550
ESTCUBE 1 23 Nov 21:27:46 21:31:28 26° 65° (ENE) 21:35:11 437.505/2401.250
DELFI C3 23 Nov 21:59:40 22:00:42 11° 272° (W) 22:01:44 145.870
nSIGHT-1 23 Nov 22:00:15 22:03:15 35° 351° (N) 22:06:16 .
SO-50 23 Nov 22:02:30 22:06:44 40° 316° (NW) 22:11:03 436.795
SPROUT 23 Nov 22:09:17 22:12:09 18° 62° (ENE) 22:15:02 437.525
O/OREOS (USA 219) 23 Nov 22:09:30 22:14:05 86° 63° (ENE) 22:18:36 437.305
EO-88 23 Nov 22:17:45 22:18:48 11° 271° (W) 22:19:51 145.990 - 145.960
UNISAT 6 23 Nov 22:19:32 22:23:39 46° 289° (WNW) 22:27:43 437.425
NO-84 23 Nov 22:20:29 22:22:08 12° 236° (SW) 22:23:47 435.350 FM
PRISM 23 Nov 22:21:52 22:26:02 66° 102° (ESE) 22:30:08 437.425
TIGRISAT 23 Nov 22:23:01 22:27:07 46° 289° (WNW) 22:31:10 435.000
LO-87 23 Nov 22:29:10 22:32:41 52° 260° (W) 22:36:14 145.935 - 145.965
RS-15 23 Nov 22:36:08 22:46:49 33° 357° (N) 22:57:11 29.354- 29.394
FO-29 23 Nov 22:38:22 22:43:59 22° 308° (NW) 22:49:26 435.910
AIST 2D 23 Nov 22:47:52 22:51:16 42° 99° (E) 22:54:39 435.315
ISS 23 Nov 22:54:35 22:57:36 33° 0° (N) 23:00:37 437.550
DUCHIFAT 1 23 Nov 22:54:37 22:56:52 14° 90° (E) 22:59:06 145.980
ESTCUBE 1 23 Nov 23:03:57 23:08:06 37° 263° (W) 23:12:18 437.505/2401.250
EO-79 23 Nov 23:05:01 23:08:24 23° 94° (E) 23:11:46 145.935-145.965
PCSat 23 Nov 23:05:10 23:10:15 43° 114° (ESE) 23:15:23 145.827
NANOSAT C BR1 23 Nov 23:06:14 23:09:28 21° 93° (E) 23:12:41 145.865
VELOX 1 23 Nov 23:10:14 23:14:29 46° 70° (ENE) 23:18:47 145.980
POLYITAN 1 23 Nov 23:20:55 23:24:44 33° 97° (E) 23:28:33 437.675
50 SAT 23 Nov 23:23:52 23:25:18 12° 63° (ENE) 23:26:44 437.505
nSIGHT-1 23 Nov 23:36:55 23:39:57 38° 11° (N) 23:42:59 .
SPROUT 23 Nov 23:43:27 23:47:39 53° 260° (W) 23:51:52 437.525
QB50P2 23 Nov 23:44:16 23:48:29 67° 102° (ESE) 23:52:39 145.880/145.840
DX 1 23 Nov 23:46:19 23:50:02 28° 65° (ENE) 23:53:47 434.975-435.025
SO-50 23 Nov 23:46:34 23:48:26 12° 338° (NNW) 23:50:18 436.795
O/OREOS (USA 219) 23 Nov 23:51:29 23:52:44 11° 264° (W) 23:53:58 437.305
PRISM 23 Nov 23:58:30 00:00:47 14° 300° (WNW) 00:03:02 437.425
UKube-1 24 Nov 00:21:15 00:25:16 39° 68° (ENE) 00:29:19 .
AIST 2D 24 Nov 00:22:02 00:24:06 15° 296° (WNW) 00:26:09 435.315
DUCHIFAT 1 24 Nov 00:28:48 00:32:54 59° 287° (WNW) 00:36:59 145.980
ISS 24 Nov 00:31:14 00:34:28 58° 20° (NNE) 00:37:42 437.550
Oscar 19 24 Nov 00:34:24 00:38:38 25° 93° (E) 00:42:51 437.125/150
EO-79 24 Nov 00:40:25 00:44:15 35° 291° (WNW) 00:48:03 145.935-145.965
NANOSAT C BR1 24 Nov 00:41:26 00:45:19 38° 291° (WNW) 00:49:10 145.865
AO-91 24 Nov 00:44:44 00:48:34 27° 92° (E) 00:52:03 145.960
VELOX 1 24 Nov 00:47:53 00:51:09 20° 268° (W) 00:54:28 145.980
MOZHAYETS 4 24 Nov 00:48:27 00:51:18 17° 60° (ENE) 00:54:10
PCSat 24 Nov 00:48:46 00:53:45 36° 314° (NW) 00:58:46 145.827
RS-15 24 Nov 00:51:43 01:03:13 45° 31° (NNE) 01:14:06 29.354- 29.394
BEESAT 3 24 Nov 00:51:46 00:54:24 17° 112° (ESE) 00:57:03 437.485
50 SAT 24 Nov 00:53:54 00:57:00 43° 260° (W) 01:00:08 437.505
BEESAT 24 Nov 00:54:25 00:57:23 17° 59° (ENE) 01:00:21 436.000
POLYITAN 1 24 Nov 00:56:56 01:00:23 25° 294° (WNW) 01:03:48 437.675
ITUPSAT 1 24 Nov 01:05:43 01:09:10 20° 61° (ENE) 01:12:39 437.325
BUGSAT 1 24 Nov 01:08:37 01:12:40 85° 283° (WNW) 01:16:40 437.445
nSIGHT-1 24 Nov 01:13:09 01:16:20 64° 210° (SSW) 01:19:30 .
QB50P2 24 Nov 01:21:30 01:23:44 14° 300° (WNW) 01:25:59 145.880/145.840
DX 1 24 Nov 01:22:10 01:26:07 33° 263° (W) 01:30:06 434.975-435.025
Gurwin Techsat 1B 24 Nov 01:24:39 01:29:50 50° 100° (E) 01:34:59 435.225
AO-7 24 Nov 01:55:30 02:01:12 20° 89° (E) 02:06:52 .
UKube-1 24 Nov 01:58:00 02:01:25 23° 266° (W) 02:04:52 .
M-CUBED/EXP-1 PRIME 24 Nov 01:58:01 02:01:29 21° 98° (E) 02:05:00 437.505
ISS 24 Nov 02:07:56 02:10:48 28° 219° (SW) 02:13:39 437.550
BEESAT 2 24 Nov 02:09:57 02:13:31 31° 117° (ESE) 02:17:08 435.950
Oscar 19 24 Nov 02:13:13 02:18:10 48° 292° (WNW) 02:23:07 437.125/150
AO-91 24 Nov 02:20:59 02:25:05 32° 294° (WNW) 02:28:47 145.960
MOZHAYETS 4 24 Nov 02:23:26 02:27:58 65° 258° (WSW) 02:32:30
BEESAT 3 24 Nov 02:27:36 02:31:32 56° 310° (NW) 02:35:30 437.485
BEESAT 24 Nov 02:29:50 02:34:35 72° 256° (WSW) 02:39:23 436.000
ITAMSAT 1 24 Nov 02:34:16 02:38:02 20° 91° (E) 02:41:45 435.822/435.867
PCSat 24 Nov 02:36:48 02:38:49 12° 338° (NNW) 02:40:50 145.827
ITUPSAT 1 24 Nov 02:41:54 02:46:36 57° 259° (W) 02:51:19 437.325
CUBESAT XI-V 24 Nov 02:43:41 02:48:07 50° 71° (ENE) 02:52:36 437.345
nSIGHT-1 24 Nov 02:51:25 02:52:00 10° 228° (SW) 02:52:35 .
YUBILEINY 24 Nov 02:57:04 03:00:45 13° 70° (ENE) 03:04:27 435.215
RS-15 24 Nov 03:04:53 03:16:47 77° 239° (WSW) 03:28:00 29.354- 29.394
Gurwin Techsat 1B 24 Nov 03:05:08 03:09:30 26° 298° (WNW) 03:13:51 435.225
SO-50 24 Nov 03:10:40 03:13:31 16° 28° (NNE) 03:16:25 436.795
AO-85 24 Nov 03:18:39 03:22:28 56° 122° (ESE) 03:26:29 145.980
DOVE 4 24 Nov 03:31:03 03:33:31 13° 85° (E) 03:35:56 437.250
M-CUBED/EXP-1 PRIME 24 Nov 03:31:38 03:36:04 52° 294° (WNW) 03:40:35 437.505
AO-7 24 Nov 03:46:43 03:55:08 85° 109° (ESE) 04:03:31 .
BEESAT 2 24 Nov 03:47:31 03:51:12 33° 316° (NW) 03:54:55 435.950
KKS-1 24 Nov 03:51:10 03:55:35 61° 72° (ENE) 04:00:02 437.445
STARS 24 Nov 04:06:10 04:10:13 36° 68° (ENE) 04:14:18 437.465
BEESAT 3 24 Nov 04:08:11 04:09:56 12° 331° (NNW) 04:11:41 437.485
ITAMSAT 1 24 Nov 04:12:45 04:17:54 61° 289° (WNW) 04:23:00 435.822/435.867
CUBESAT XI-V 24 Nov 04:22:27 04:25:47 19° 269° (W) 04:29:07 437.345
XW-2C 24 Nov 04:45:51 04:46:55 11° 89° (E) 04:48:00 145.795 - 145.815
YUBILEINY 24 Nov 04:47:04 04:55:40 65° 92° (E) 05:04:21 435.215
SO-50 24 Nov 04:50:16 04:54:52 63° 50° (NE) 04:59:32 436.795
LilacSat-2 24 Nov 04:51:15 04:53:19 14° 90° (E) 04:55:23 437.200
XW-2F 24 Nov 04:52:49 04:54:28 12° 90° (E) 04:56:05 145.980 - 146.000
AO-85 24 Nov 05:00:04 05:03:13 22° 324° (NW) 05:06:30 145.980
STRAND 1 24 Nov 05:00:36 05:04:16 20° 59° (ENE) 05:07:54 437.568
DOVE 4 24 Nov 05:06:43 05:11:56 84° 285° (WNW) 05:16:50 437.250
KAITUO 1B 24 Nov 05:14:00 05:16:31 17° 92° (E) 05:19:00 145.475/437.950
RS-15 24 Nov 05:19:18 05:27:03 21° 263° (W) 05:34:35 29.354- 29.394
FO-29 24 Nov 05:24:58 05:29:14 17° 48° (NE) 05:33:41 435.910
KKS-1 24 Nov 05:29:49 05:32:32 16° 270° (W) 05:35:15 437.445
XW-2D 24 Nov 05:36:59 05:40:38 42° 98° (E) 05:44:17 145.860 - 145.880
AO-7 24 Nov 05:40:22 05:47:02 28° 310° (NW) 05:53:44 .
STARS 24 Nov 05:42:57 05:46:38 25° 265° (W) 05:50:19 437.465
NUDT-PHONESAT 24 Nov 05:51:46 05:55:19 41° 98° (E) 05:58:52 437.300
XW-2B 24 Nov 05:51:52 05:55:39 61° 101° (E) 05:59:26 145.730 - 145.750
ITAMSAT 1 24 Nov 05:55:17 05:56:19 11° 309° (NW) 05:57:22 435.822/435.867
HO-68 24 Nov 05:59:51 06:05:54 28° 93° (E) 06:11:54 435.675
CUBEBUG 2 24 Nov 06:00:50 06:02:08 11° 88° (E) 06:03:27 437.445
CUTE 1.7 + AOD 2 24 Nov 06:03:22 06:06:42 22° 92° (E) 06:10:01 437.475
PCSat 24 Nov 06:07:17 06:10:50 17° 32° (NNE) 06:14:23 145.827
CUTE-I 24 Nov 06:08:56 06:14:18 65° 102° (ESE) 06:19:36 437.470
XW-2C 24 Nov 06:17:43 06:21:31 65° 285° (WNW) 06:25:17 145.795 - 145.815
